Location: DaVinci Observatory
(43.1080°N, 78.6453°W)
Time: 04:09:32
(UTC-05:00)

Tiangong 2 - Pass Details

Date: 14 October 2017
Orbit: 386 x 389 km, 42.8° (Epoch: 17 December)

Event Time Altitude Azimuth Distance (km) Brightness Sun altitude
Exits shadow 06:31:19 18° 272° (W) 1,042 2.6 -11.0°
Maximum altitude 06:33:35 84° 184° (S) 397 1.1 -10.6°
Drops below altitude 10° 06:36:48 10° 97° (E) 1,423 5.6 -10.0°
Sets 06:38:53 0° 96° (E) 2,279 7.3 -9.6°
